Starlink 1019

operational
NORAD ID: 44724 Int'l Des: 2019-074 Owner: SPXS Country: US Constellation: starlink
LEOCIRCULARSTARLINK_TYPE

Über Starlink 1019

Beschreibung wird geladen...

Live-Position

3D-Globus wird geladen...

Nächste Überflüge

Höhenverlauf

Altitude vs Time

uPlot chart will show altitude changes over time

Zweizeiliger Elementsatz

1 44724U 19074M 25304.33336806 .01899582 00000-0 92269-1 0 9999
2 44724 53.0542 47.1497 0000920 77.6700 178.9585 15.14484242 5803
Epoch: 31. Okt. 2025 • Age: 5 hours

Aktueller Status

Höhe 529.3 km
Geschwindigkeit 7.60 km/s
Subsatellitenpunkt -28.06°S, 21.14°E
Startdatum 11. Nov. 2019
Alter 5.9 years
Typ internet

Technische Details

Klassifizierung Payload
Masse 260.00 kg
Trockenmasse 248.00 kg
Gesamtmasse 260.00 kg
Länge 0.20 m
Durchmesser 2.80 m
Spannweite 9.00 m
Form Box + pan
Hersteller SPXS
Bus-Typ Starlink
Phasenstatus In Orbit
Besitzer/Staat SPXS/US

Große Konstellationen

Loading constellations...